Date,TemperatureHighF,TemperatureAvgF,TemperatureLowF,DewpointHighF,DewpointAvgF,DewpointLowF,HumidityHigh,HumidityAvg,HumidityLow,PressureMaxIn,PressureMinIn,WindSpeedMaxMPH,WindSpeedAvgMPH,GustSpeedMaxMPH,PrecipitationSumIn
2013-2-1,74.7,52.3,34.7,33.0,28.7,20.0,80,48,13,30.30,30.20,8,1,8,0.00
2013-2-2,78.6,56.3,37.0,37.0,28.9,18.0,71,42,11,30.32,30.16,5,1,9,0.00
2013-2-3,71.0,58.2,48.4,38.0,34.4,26.0,66,44,22,30.19,29.99,3,1,7,0.00
2013-2-4,71.9,56.9,46.0,40.0,38.0,37.0,76,52,28,30.08,29.96,5,1,10,0.00
2013-2-5,75.6,57.9,40.6,42.0,39.2,35.0,86,54,23,30.08,29.94,8,2,12,0.00
2013-2-6,71.3,56.7,43.1,43.0,38.2,34.0,83,54,27,30.08,29.94,12,2,13,0.00
2013-2-7,72.1,56.1,41.3,40.0,34.5,26.0,80,49,19,30.16,30.00,5,1,10,0.00
2013-2-8,68.6,55.5,41.3,33.0,25.7,13.0,70,37,12,30.01,29.83,11,3,16,0.00
2013-2-9,53.8,44.6,36.0,37.0,28.9,22.0,93,57,30,30.13,29.84,18,3,21,0.05
2013-2-10,58.2,43.4,28.8,29.0,23.4,16.0,85,51,20,30.16,30.03,8,1,13,0.00
2013-2-11,52.1,38.5,29.6,36.0,29.1,22.0,94,72,37,30.29,30.07,15,2,18,0.17
2013-2-12,53.9,41.0,29.9,35.0,31.3,27.0,96,72,38,30.41,30.29,6,1,10,0.00
2013-2-13,62.5,45.0,28.0,30.0,26.2,20.0,90,54,20,30.32,30.18,8,1,9,0.00
2013-2-14,68.0,48.8,31.2,30.0,26.9,21.0,82,48,17,30.25,30.11,7,1,10,0.00
2013-2-15,72.2,54.7,38.9,34.0,22.5,10.0,71,36,9,30.30,30.20,17,3,24,0.00
2013-2-16,73.5,62.1,48.7,17.0,10.0,1.0,28,14,6,30.31,30.03,26,7,31,0.00
2013-2-17,73.4,57.5,38.6,19.0,12.1,-2.0,41,19,5,30.02,29.87,13,3,20,0.00
2013-2-18,72.1,55.1,39.0,24.0,17.9,9.0,49,27,9,30.11,29.97,5,1,9,0.00
2013-2-19,72.0,57.2,40.8,30.0,17.2,6.0,47,25,8,29.99,29.75,13,3,19,0.00
2013-2-20,51.7,40.9,32.1,38.0,32.6,30.0,95,74,44,30.06,29.73,12,3,22,0.19
2013-2-21,55.3,42.3,31.9,38.0,33.0,30.0,97,73,43,30.19,30.06,8,2,11,0.27
2013-2-22,56.8,45.0,35.8,38.0,32.8,27.0,93,65,36,30.24,30.09,10,2,14,0.00
2013-2-23,66.7,48.8,30.6,32.0,26.8,18.0,87,49,16,30.24,29.93,6,1,12,0.00
2013-2-24,50.6,44.6,34.9,32.0,19.7,5.0,73,42,16,30.19,29.87,22,6,31,0.00
2013-2-25,59.5,44.2,27.5,24.0,17.9,14.0,66,38,19,30.33,30.14,7,2,11,0.00
2013-2-26,64.8,47.3,30.4,26.0,19.9,12.0,74,39,15,30.17,30.03,10,2,16,0.00
2013-2-27,65.3,50.0,35.7,20.0,12.1,2.0,54,25,9,30.28,30.17,10,3,14,0.00
2013-2-28,69.2,50.1,31.9,19.0,14.2,5.0,55,28,9,30.40,30.27,10,2,13,0.00